Weather History for KIOB - March, 2013

Change the Weather History Date:

Monday, March 11, 2013

  Actual Average Record
Temperature  
Mean Temperature 50 °F -  
Max Temperature 62 °F 56 °F 73 °F (2014)
Min Temperature 39 °F 33 °F 39 °F (2013)
Degree Days  
Heating Degree Days 14    
Moisture  
Dew Point 41 °F    
Average Humidity 70    
Maximum Humidity 100    
Minimum Humidity 32    
Precipitation  
Precipitation 0.00 in - - ()
Sea Level Pressure  
Sea Level Pressure 29.82 in    
Wind  
Wind Speed 12 mph (SW)    
Max Wind Speed 24 mph    
Max Gust Speed 32 mph    
Visibility 9 miles    
Events Rain    
Averages and records for this station are not official NWS values.
T = Trace of Precipitation, MM = Missing Value Source: NWS Daily Summary

Daily Weather History Graph

Daily Weather History Graph

Search for Another Location

Airport or City:

Trip Planner

Search our weather history database for the weather conditions in past years. The results will help you decide how hot, cold, wet, or windy it might be!

Date:

Astronomy

Mar. 11, 2013 Rise Set
Actual Time 7:52 AM EDT 7:39 PM EDT
Civil Twilight 7:26 AM EDT 8:05 PM EDT
Nautical Twilight 6:56 AM EDT 8:36 PM EDT
Astronomical Twilight 6:25 AM EDT 9:07 PM EDT
Moon 7:26 AM EDT (3/11) 7:49 PM EDT (3/11)
Length of Visible Light 12h 39m
Length of Day
11h 46m
Waning Crescent, 0% of the Moon is Illuminated
Mar 11
Waning Crescent
Mar 11
New
Mar 19
First Quarter
Mar 27
Full
Apr 3
Last Quarter

Hourly Weather History & Observations

Time (EDT) Temp. Windchill Dew Point Humidity Pressure Visibility Wind Dir Wind Speed Gust Speed Precip Events Conditions
12:15 AM 62.6 °F - 33.8 °F 34% 29.90 in 10.0 mi SSW 11.5 mph - N/A   Scattered Clouds
12:35 AM 62.6 °F - 33.8 °F 34% 29.91 in 10.0 mi SSW 12.7 mph - N/A   Clear
12:55 AM 62.6 °F - 33.8 °F 34% 29.90 in 10.0 mi South 11.5 mph - N/A   Clear
1:15 AM 62.6 °F - 33.8 °F 34% 29.89 in 10.0 mi SSW 10.4 mph - N/A   Scattered Clouds
1:35 AM 60.8 °F - 33.8 °F 36% 29.88 in 10.0 mi South 10.4 mph 16.1 mph N/A   Scattered Clouds
1:55 AM 62.6 °F - 32.0 °F 32% 29.88 in 10.0 mi South 13.8 mph 18.4 mph N/A   Scattered Clouds
2:15 AM 60.8 °F - 32.0 °F 34% 29.87 in 10.0 mi South 12.7 mph - N/A   Scattered Clouds
2:35 AM 60.8 °F - 32.0 °F 34% 29.87 in 10.0 mi South 16.1 mph 23.0 mph N/A   Mostly Cloudy
2:55 AM 60.8 °F - 32.0 °F 34% 29.87 in 10.0 mi SSW 16.1 mph 21.9 mph N/A   Overcast
3:15 AM 60.8 °F - 32.0 °F 34% 29.86 in 10.0 mi SSW 15.0 mph 21.9 mph N/A   Overcast
3:35 AM 60.8 °F - 32.0 °F 34% 29.86 in 10.0 mi SSW 13.8 mph 20.7 mph N/A   Overcast
3:55 AM 59.0 °F - 32.0 °F 36% 29.84 in 10.0 mi SSW 15.0 mph 23.0 mph N/A   Scattered Clouds
4:15 AM 59.0 °F - 32.0 °F 36% 29.83 in 10.0 mi South 13.8 mph 18.4 mph N/A   Scattered Clouds
4:35 AM 59.0 °F - 33.8 °F 39% 29.83 in 10.0 mi South 11.5 mph 18.4 mph N/A   Clear
4:55 AM 59.0 °F - 33.8 °F 39% 29.83 in 10.0 mi South 10.4 mph 18.4 mph N/A   Clear
5:15 AM 59.0 °F - 33.8 °F 39% 29.83 in 10.0 mi SSW 11.5 mph - N/A   Clear
5:35 AM 59.0 °F - 33.8 °F 39% 29.83 in 10.0 mi SSW 9.2 mph - N/A   Clear
5:55 AM 57.2 °F - 35.6 °F 44% 29.83 in 10.0 mi South 11.5 mph - N/A   Clear
6:15 AM 57.2 °F - 35.6 °F 44% 29.83 in 10.0 mi South 10.4 mph - N/A   Clear
6:35 AM 57.2 °F - 35.6 °F 44% 29.83 in 10.0 mi South 11.5 mph - N/A   Clear
6:55 AM 57.2 °F - 35.6 °F 44% 29.82 in 10.0 mi South 10.4 mph - N/A   Clear
7:15 AM 57.2 °F - 37.4 °F 48% 29.83 in 10.0 mi South 11.5 mph 17.3 mph N/A   Clear
7:35 AM 57.2 °F - 37.4 °F 48% 29.83 in 10.0 mi South 11.5 mph 16.1 mph N/A   Scattered Clouds
7:55 AM 57.2 °F - 39.2 °F 51% 29.85 in 10.0 mi SSW 9.2 mph - N/A   Overcast
8:15 AM 57.2 °F - 39.2 °F 51% 29.84 in 10.0 mi South 8.1 mph - N/A   Overcast
8:35 AM 57.2 °F - 42.8 °F 59% 29.84 in 10.0 mi SSW 6.9 mph - N/A Rain Light Rain
8:55 AM 55.4 °F - 44.6 °F 67% 29.83 in 10.0 mi Calm Calm - N/A Rain Light Rain
9:15 AM 53.6 °F - 44.6 °F 72% 29.83 in 7.0 mi Calm Calm - N/A Rain Light Rain
9:35 AM 53.6 °F - 46.4 °F 77% 29.83 in 10.0 mi Calm Calm - N/A   Overcast
9:55 AM 51.8 °F - 46.4 °F 82% 29.83 in 7.0 mi Calm Calm - N/A Rain Rain
10:15 AM 51.8 °F - 48.2 °F 88% 29.80 in 10.0 mi ESE 3.5 mph - N/A Rain Light Rain
10:35 AM 51.8 °F - 48.2 °F 88% 29.82 in 10.0 mi Calm Calm - N/A Rain Rain
10:55 AM 50.0 °F - 50.0 °F 100% 29.82 in 5.0 mi Calm Calm - N/A Rain Rain
11:15 AM 50.0 °F - 50.0 °F 100% 29.83 in 2.5 mi Calm Calm - N/A Rain Heavy Rain
11:35 AM 51.8 °F - 50.0 °F 94% 29.82 in 2.5 mi South 5.8 mph - N/A Rain Heavy Rain
11:55 AM 53.6 °F - 51.8 °F 94% 29.83 in 3.0 mi SSW 11.5 mph - N/A Rain Heavy Rain
12:15 PM 53.6 °F - 51.8 °F 94% 29.80 in 5.0 mi South 8.1 mph - N/A Rain Heavy Rain
12:35 PM 53.6 °F - 51.8 °F 94% 29.77 in 7.0 mi South 13.8 mph - N/A Rain Rain
12:55 PM 53.6 °F - 51.8 °F 94% 29.76 in 10.0 mi South 15.0 mph 21.9 mph N/A Rain Light Rain
1:15 PM 53.6 °F - 51.8 °F 94% 29.75 in 10.0 mi South 18.4 mph 26.5 mph N/A Rain Light Rain
1:35 PM 55.4 °F - 51.8 °F 88% 29.75 in 10.0 mi SW 18.4 mph 27.6 mph N/A Rain Light Rain
1:55 PM 55.4 °F - 51.8 °F 88% 29.74 in 10.0 mi SSW 23.0 mph 29.9 mph N/A Rain Light Rain
2:15 PM 55.4 °F - 51.8 °F 88% 29.73 in 10.0 mi SSW 24.2 mph 31.1 mph N/A Rain Light Rain
2:35 PM 55.4 °F - 51.8 °F 88% 29.71 in 10.0 mi SSW 17.3 mph 32.2 mph N/A Rain Light Rain
2:55 PM 55.4 °F - 51.8 °F 88% 29.71 in 10.0 mi SW 20.7 mph 31.1 mph N/A Rain Light Rain
3:15 PM 55.4 °F - 51.8 °F 88% 29.71 in 10.0 mi SW 18.4 mph 29.9 mph N/A Rain Light Rain
3:35 PM 55.4 °F - 51.8 °F 88% 29.68 in 10.0 mi SW 19.6 mph 27.6 mph N/A Rain Light Rain
3:55 PM 55.4 °F - 51.8 °F 88% 29.69 in 10.0 mi SW 16.1 mph 23.0 mph N/A Rain Light Rain
4:15 PM 53.6 °F - 51.8 °F 94% 29.68 in 10.0 mi SSW 16.1 mph - N/A Rain Light Rain
4:35 PM 50.0 °F - 46.4 °F 87% 29.71 in 10.0 mi West 11.5 mph 25.3 mph N/A Rain Light Rain
4:55 PM 46.4 °F 39.2 °F 46.4 °F 100% 29.73 in 4.0 mi West 18.4 mph 26.5 mph N/A Rain Rain
5:15 PM 46.4 °F 39.8 °F 44.6 °F 93% 29.73 in 7.0 mi West 16.1 mph 21.9 mph N/A Rain Light Rain
5:35 PM 46.4 °F 40.4 °F 44.6 °F 93% 29.73 in 10.0 mi West 13.8 mph 20.7 mph N/A   Light Drizzle
5:55 PM 46.4 °F 40.4 °F 44.6 °F 93% 29.74 in 10.0 mi WNW 13.8 mph 21.9 mph N/A   Overcast
6:15 PM 44.6 °F 37.4 °F 42.8 °F 93% 29.77 in 10.0 mi West 16.1 mph 26.5 mph N/A   Overcast
6:35 PM 44.6 °F 38.8 °F 42.8 °F 93% 29.77 in 10.0 mi WNW 11.5 mph 16.1 mph N/A   Overcast
6:55 PM 44.6 °F 39.2 °F 42.8 °F 93% 29.80 in 10.0 mi WNW 10.4 mph 19.6 mph N/A   Overcast
7:15 PM 42.8 °F 34.3 °F 41.0 °F 93% 29.81 in 10.0 mi West 19.6 mph 26.5 mph N/A   Overcast
7:35 PM 42.8 °F 34.8 °F 41.0 °F 93% 29.82 in 10.0 mi West 17.3 mph 21.9 mph N/A   Overcast
7:55 PM 42.8 °F 35.8 °F 39.2 °F 87% 29.83 in 10.0 mi West 13.8 mph 20.7 mph N/A   Overcast
8:15 PM 42.8 °F 36.2 °F 37.4 °F 81% 29.83 in 10.0 mi WNW 12.7 mph 19.6 mph N/A   Overcast
8:35 PM 42.8 °F 36.2 °F 37.4 °F 81% 29.84 in 10.0 mi WNW 12.7 mph 21.9 mph N/A   Overcast
8:55 PM 41.0 °F 33.1 °F 35.6 °F 81% 29.85 in 10.0 mi WNW 15.0 mph 23.0 mph N/A   Overcast
9:15 PM 41.0 °F 34.7 °F 35.6 °F 81% 29.86 in 10.0 mi West 10.4 mph 17.3 mph N/A   Overcast
9:35 PM 41.0 °F 33.5 °F 33.8 °F 76% 29.87 in 10.0 mi West 13.8 mph 19.6 mph N/A   Overcast
9:55 PM 41.0 °F 34.7 °F 33.8 °F 76% 29.88 in 10.0 mi West 10.4 mph - N/A   Overcast
10:15 PM 41.0 °F 34.7 °F 33.8 °F 76% 29.88 in 10.0 mi WNW 10.4 mph - N/A   Overcast
10:35 PM 41.0 °F 35.2 °F 33.8 °F 76% 29.90 in 10.0 mi West 9.2 mph 16.1 mph N/A   Overcast
10:55 PM 39.2 °F 31.2 °F 33.8 °F 81% 29.91 in 10.0 mi WNW 13.8 mph 21.9 mph N/A   Overcast
11:15 PM 39.2 °F 33.6 °F 33.8 °F 81% 29.91 in 10.0 mi WNW 8.1 mph 16.1 mph N/A   Overcast
11:35 PM 39.2 °F 32.5 °F 33.8 °F 81% 29.91 in 10.0 mi West 10.4 mph - N/A   Overcast